Tracking 33199 objects as of 16-Feb-2026
HD Live streaming from Space Station
objects crossing your sky now

SLOSHSAT

Track SLOSHSAT now!
SLOSHSAT is classified as:


NORAD ID: 28544
Int'l Code: 2005-005C
Perigee: 277.3 km
Apogee: 30,546.6 km
Inclination: 7.1 °
Period: 533.3 minutes
Semi major axis: 21782 km
RCS: 0.5011 m2 (medium)
Launch date: February 12, 2005
Source: European Space Agency (ESA)
Launch site: FRENCH GUIANA (FRGUI)
Your satellite tracking list
Your tracking list is empty




NASA's NSSDC Master Catalog

Two Line Element Set (TLE):
1 28544U 05005C   26047.07719417  .00001322  00000-0  43434-3 0  9997
2 28544   7.0741  53.1621 6947953 162.6761 244.9308  2.70039970187906
Source of the keplerian elements: AFSPC